Location: Home
(42.5358°N, 72.7383°W)
Time: 12:01:27
(UTC-05:00)

A-11 Canister half - Pass Details

Date: 30 November 2021
Orbit: 1516 x 1684 km, 47.2° (Epoch: 26 January)

Event Time Altitude Azimuth Distance (km) Brightness Sun altitude
Rises 13:51:55 0° 296° (WNW) 4,914 11.7 18.8°
Reaches altitude 10° 13:55:06 10° 293° (WNW) 3,936 11.3 18.5°
Maximum altitude 14:05:02 62° 217° (SW) 1,857 10.3 17.5°
Drops below altitude 10° 14:14:55 10° 139° (SE) 3,919 11.4 16.4°
Sets 14:18:05 0° 136° (SE) 4,891 11.7 16.1°
